Flag for U.S.A. Weather past 2 weeks in St. Paul, Minnesota, U.S.A.

Now
42 °F

Clear.


Feels Like: 40 °F
Forecast: 43 / 65 °F
Wind: 3 mph from South

Location: St. Paul Downtown Holman Field

Current Time: Sep 16, 2014 at 7:07:07 AM

Latest Report: Sep 16, 2014 at 5:53 AM


Visibility: 10 mi

Pressure: 30.21 "Hg

Humidity: 96%

Dew point: 41 °F

Location of St. PaulLocation

Historic Weather in St. Paul — Graph

°F

St. Paul temperature yesterday

Maximum temperature yesterday: 60 °F (at 3:53 PM)
Minimum temperature yesterday: 46 °F (at 11:53 PM)
Average temperature yesterday: 54 °F

Past Weeks' High & Low Weather Summary

 TemperatureHumidityPressure
High83 °F (Sep 4, 1:53 PM)100% (Sep 13, 6:53 AM)30.45 "Hg (Sep 13, 6:53 AM)
Low37 °F (Sep 13, 6:53 AM)36% (Sep 7, 2:53 PM)29.62 "Hg (Sep 4, 4:53 AM)
Average61 °F73%30.02 "Hg
* Reported Sep 1 5:53 AM — Sep 16 5:53 AM, St. Paul, Weather by CustomWeather, © 2014

Note: Actual official high and low records may vary slightly from our data, if they occured in-between our weather recording intervals... More about our weather records

Advertising

St. Paul weather history for previous 24 hours

 ConditionsComfort  
Time TempWeatherWind HumidityBarometerVisibility
5:53 AM
Sep 16
42 °FClear.3 mph96%30.21 "Hg10 mi
4:53 AM43 °FClear.No wind97%30.22 "Hg10 mi
3:53 AM42 °FClear.No wind92%30.22 "Hg10 mi
2:53 AM43 °FClear.No wind93%30.22 "Hg10 mi
1:53 AM43 °FClear.No wind97%30.22 "Hg10 mi
12:53 AM45 °FClear.No wind93%30.23 "Hg10 mi
11:53 PM
Sep 15
46 °FClear.No wind86%30.23 "Hg10 mi
10:53 PM47 °FClear.No wind83%30.23 "Hg10 mi
9:53 PM48 °FClear.No wind86%30.23 "Hg10 mi
8:53 PM49 °FClear.No wind80%30.22 "Hg10 mi
7:53 PM51 °FSunny.3 mph66%30.21 "Hg10 mi
6:53 PM57 °FSunny.8 mph47%30.20 "Hg10 mi
5:53 PM59 °FPassing clouds.14 mph48%30.19 "Hg10 mi
4:53 PM60 °FSunny.12 mph44%30.19 "Hg10 mi
3:53 PM60 °FPartly sunny.9 mph46%30.19 "Hg10 mi
2:53 PM59 °FOvercast.12 mph51%30.21 "Hg10 mi
1:53 PM58 °FOvercast.10 mph51%30.22 "Hg10 mi
12:53 PM59 °FOvercast.10 mph56%30.21 "Hg10 mi
11:53 AM58 °FScattered clouds.7 mph62%30.22 "Hg10 mi
10:53 AM57 °FPartly sunny.7 mph72%30.22 "Hg10 mi
9:53 AM54 °FPartly sunny.3 mph82%30.21 "Hg9 mi
8:53 AM52 °FPartly sunny.6 mph86%30.21 "Hg10 mi
7:53 AM50 °FLight rain. Mostly cloudy.No wind93%30.21 "Hg10 mi
Weather by CustomWeather, © 2014

See weather overviewHow to use our weather pages